Погода Николаевск-
на-Амуре

Хотите узнать прогноз погоды Николаевск-
на-Амуре? Тогда Вам сюда: Погода Николаевск-
на-Амуре

Поиск расширенной информации на нашем сайте:

Полезная информация:

Новости сайта



02.01.2020
Опубликован Долгосрочный прогноз погоды по городам России и ближнего зарубежья на январь 2020 года.
Карты: Прогноз на январь и февраль 2020 года, Сравнение прогнозируемой аномалии приземной температуры воздуха на январь 2020 года по разным моделям.




Погода Николаевск-
на-Амуре - сегодня

Время (UTC), дата Ветер
(°,м/с) 
Видим.   Явления Облачность Т
(°С)
Тd
(°С)
f(%) Тe
(°С)
Pmin
(гПа)
dP
(гПа)
Po
(мм)
O2
(г/м3)
Тmin Tmax R s Состояние
почвы
12 26.02.20 020 (С) 20000 м    ясно 
-15.2 -18.1 78 -17  1022.1  762  327           
15 26.02.20 010 (С) 20000 м    ясно 
-18.5 -20.9 81 -23  1021.5  -0.7  761  331           
18 26.02.20 020 (С) 20000 м    ясно 
-20 -21.9 85 -24  1021.2  -0.3  761  333           
21 26.02.20 тихо ()   20000 м    ясно 
-22.4 -24.8 81 -22  1021.6  0.4  761  336  -22.8      67  равномерный
сухой снег
100% 
00 27.02.20 290 (З) 20000 м    1/1 1000 м 
[Sc]
-17.3 -19.8 81 -20  1022.4  0.9  762  329           
03 27.02.20 240 (ЮЗ) 20000 м  слаб. снег  10/10 600 м 
[Sc]
-12.4 -16 74 -14  1022.2  0.1  762  323           
06 27.02.20 360 (С) 20000 м  {снег}  1/1 600 м 
[Sc]
-8.8 -21 37 -13  1022.4  0.3  762  319           
09 27.02.20 330 (СЗ) 20000 м    ясно 
-13.5 -21.4 51 -17  1024.5  764  325    -8.1  0.0     
12 27.02.20 330 (СЗ) 20000 м    ясно 
-18.3 -20.4 84 -19  1025.8  1.1  765  332           
15 27.02.20 320 (СЗ) 20000 м    ясно 
-22.9 -25.4 80 -26  1026.2  0.3  765  338           
18 27.02.20 290 (З) 20000 м    ясно 
-20.9 -23.1 82 -24  1026.2  765  335           
21 27.02.20 250 (З) 20000 м    8/0 средняя 
[Ac trans]
-22.5 -25 80 -23  1026.6  0.4  765  338  -23.9      67  равномерный
сухой снег
100% 
00 28.02.20 250 (З) 20000 м    6/1 600 м средняя 
[Sc|Ac trans]
-19.5 -21.8 82 -22  1027.1  0.6  766  334           
03 28.02.20 250 (З) 20000 м    ясно 
-13.1 -19.9 57 -17  1026.1  -0.9  765  325           
06 28.02.20 240 (ЮЗ) 20000 м    ясно 
-10.5 -19.5 48 -12  1025.3  -0.7  764  322           
09 28.02.20 260 (З) 20000 м    ясно 
-14.3 -20.9 57 -14  1025.3  764  327    -10.1       
12 28.02.20 340 (С) 20000 м    ясно 
-18.2 -20.8 80 -21  1025.1  -0.3  764  331           
15 28.02.20 010 (С) 20000 м    ясно 
-20.2 -22.3 83 -20  1024.4  -0.7  764  334           
18 28.02.20 010 (С) 20000 м    ясно 
-22 -24.3 81 -27  1024.5  764  336           
21 28.02.20 360 (С) 20000 м    ясно 
-22 -24.4 81 -25  1024.5  764  336  -25      67  равномерный
сухой снег
100% 
00 29.02.20 260 (З) 20000 м    ясно 
-20 -23.3 75 -20  1024.9  0.6  764  334           
03 29.02.20 260 (З) 20000 м    ясно 
-12.3 -20.2 52 -12  1024  -0.8  763  324           
06 29.02.20 240 (ЮЗ) 20000 м    ясно 
-9.8 -17.5 53 -12  1023.5  -0.3  763  320           
09 29.02.20 010 (С) 20000 м    ясно 
-14 -19.6 63 -14  1024.3  0.6  764  326    -8.9       
12 29.02.20 350 (С) 20000 м    ясно 
-16.2 -17.8 87 -16  1025.3  0.9  764  329           
Время (UTC), дата Ветер
(°,м/с) 
Видим.   Явления Облачность Т
(°С)
Тd
(°С)
f(%) Тe
(°С)
Pmin
(гПа)
dP
(гПа)
Po
(мм)
O2
(г/м3)
Тmin Tmax R s Состояние
почвы

Для получения пояснительной информации подведите курсор к названию столбца.

ПОГОДА Николаевск-
на-Амуре - архив

Всё, что Вы хотите узнать о погоде Николаевск-
на-Амуре - удобно и подробно!

Выберите нужную дату (начиная с 1 января 2019* года) и нажмите кнопку "Найти".
Будут отображены архивные сводки погоды по пункту Николаевск-
на-Амуре, начиная с указанной даты.


Отображать данные в формате CSV (для использования в таблицах Excel)


Внимание! Наш архив погоды предназначен исключительно для личного некоммерческого использования в познавательных целях. Если Вам необходимы официальные справки о состоянии погоды (для производственных, юридических, коммерческих и т.п. целей), обращайтесь в органы Росгидромета.

*Примечание: данная дата относится к архиву по метеостанциям СССР (Россия, СНГ, Балтия).
Архив по метеостанциям Зарубежной Европы и Азии (кроме Китая) хранится 10 дней, по другим регионам земного шара (Китай, Африка, Америка, Австралия, Океания) - 1 день.

Николаевск-
на-Амуре - район местоположения метеостанции


Название, широта, долгота, высота метеостанции:
Николаевск-на-Амуре 53.2°ш. 140.7°д. 68 м над ур. моря [Российская Федерация]

Дополнительная информация

В oтличие oт бoльшинства пoгoдных сайтoв мы публикуем пoдрoбную метеoинфoрмацию в детальнoм прoфессиoнальнoм фoрмате.

Характеристики температуры и влажнoсти вoздуха измеряются на высoте 2 м в тени вдали oт зданий и деревьев.
Скoрoсть ветра измеряется на высoте 10 м (на урoвне рoста челoвека скoрoсть ветра ниже в 1.5-2 раза). Если метеoстанция нахoдится в гoрoде или в лесу, тo скoрoсть ветра занижена на 2-4 м/с пo сравнению с oткрытым местoм. Скoрoсть ветра над акватoриями крупных рек и oзёр, а также на вершинах хoлмoв на 2-5 м/с выше, чем в oбычных услoвиях.
Атмoсфернoе давление в разных тoчках местнoсти мoжет значительнo oтличаться oт давления на метеoстанции, в зависимoсти oт услoвий рельефа (при пoдъёме на 10 м давление пoнижается примернo на 1 мм рт.ст.).